This demonstration page uses our WeatherBlox Daily Observations layout. Learn more.

Hourly Observations for July 23, 2017

Temp ( °F °C ) Dew Point ( °F °C ) Humidity (%) Winds ( mph kmh ) Pressure ( in mb ) Visibility ( mi km ) Precip ( " mm )
12:25 am 00:25 Mostly Cloudy with Nearby Thunderstorms 76 24.4 75 23.9 97 97 Calm 29.83 1010 8 12.87472 0 0.0254
12:53 am 00:53 Mostly Clear 76 24.4 76 24.4 100 100 SSE 3 6 29.82 1010 7 11.26538 0.01 0.254
1:29 am 01:29 Cloudy with Nearby Thunderstorms 76 24.4 76 24.4 100 100 SW 7 11 29.85 1011 5 8.0467 0 0
1:34 am 01:34 Cloudy with Thunderstorms 76 24.4 76 24.4 100 100 VRB 7 11 29.83 1010 6 9.65604 0 0
1:53 am 01:53 Partly Cloudy with Thunderstorms 76 24.4 75 23.9 97 97 VRB 3 6 29.82 1010 8 12.87472 0 0
2:24 am 02:24 Partly Cloudy with Nearby Thunderstorms 75 23.9 75 23.9 100 100 Calm 29.83 1010 9 14.48406 0.01 0.254
2:40 am 02:40 Mostly Cloudy with Light Rain 75 23.9 75 23.9 100 100 SSE 3 6 29.83 1010 7 11.26538 0.01 0.254
2:53 am 02:53 Mostly Cloudy 75 23.9 74 23.3 96 96 SSE 3 6 29.8 1009 9 14.48406 0.01 0.254
3:53 am 03:53 Cloudy 74 23.3 73 22.8 97 97 S 7 11 29.79 1009 10 16.0934 0 0
4:29 am 04:29 Cloudy with Nearby Thunderstorms 74 23.3 72 22.2 94 94 Calm 29.8 1009 10 16.0934 0 0.0254
4:36 am 04:36 Cloudy with Heavy Thunderstorms 73 22.8 72 22.2 96 96 VRB 5 7 29.83 1010 2.5 4.02335 0.04 1.016
4:49 am 04:49 Cloudy with Light Thunderstorms 73 23 73 23 100 100 Calm 29.83 1010 6 9.65604 0.07 1.778
4:53 am 04:53 Cloudy with Nearby Thunderstorms 73 22.8 73 22.8 100 100 Calm 29.81 1009 9 14.48406 0.07 1.778
5:07 am 05:07 Cloudy 73 22.8 73 22.8 100 100 Calm 29.83 1010 10 16.0934 0 0.0254
5:30 am 05:30 Cloudy 73 22.8 73 22.8 100 100 Calm 29.83 1010 8 12.87472 0 0.0254
5:40 am 05:40 Cloudy 73 22.8 72 22.2 96 96 Calm 29.83 1010 9 14.48406 0 0.0254
5:53 am 05:53 Cloudy 73 22.8 73 22.8 100 100 Calm 29.8 1009 9 14.48406 0 0.0254
6:33 am 06:33 Mostly Cloudy 73 22.8 73 22.8 100 100 Calm 29.83 1010 7 11.26538 0 0
6:53 am 06:53 Mostly Cloudy 73 22.8 73 22.8 100 100 SW 3 6 29.81 1010 7 11.26538 0 0
7:53 am 07:53 Mostly Cloudy 73 22.8 72 22.2 96 96 Calm 29.83 1010 10 16.0934 0 0
8:53 am 08:53 Mostly Cloudy 74 23.3 72 22.2 94 94 VRB 5 7 29.84 1011 10 16.0934 0 0
9:53 am 09:53 Mostly Cloudy 74 23.3 70 21.1 88 88 W 12 19 29.88 1012 10 16.0934 0 0
10:33 am 10:33 Cloudy with Light Rain 73 22.8 70 21.1 90 90 W 12 19 29.88 1012 10 16.0934 0.01 0.254
10:38 am 10:38 Cloudy with Nearby Thunderstorms 72 22.2 70 21.1 94 94 W 10 17 29.88 1012 5 8.0467 0.01 0.254
10:53 am 10:53 Mostly Cloudy with Nearby Thunderstorms 73 22.8 71 21.7 94 94 W 10 17 29.86 1011 10 16.0934 0.02 0.508
11:15 am 11:15 Partly Cloudy 73 22.8 71 21.7 94 94 W 8 13 29.88 1012 10 16.0934 0 0.0254
11:53 am 11:53 Mostly Sunny 74 23.3 71 21.7 91 91 WSW 8 13 29.87 1012 10 16.0934 0 0.0254
12:53 pm 12:53 Partly Cloudy 77 25 73 22.8 88 88 S 5 7 29.78 1008 10 16.0934 0.01 0.254
1:53 pm 13:53 Sunny 81 27.2 74 23.3 79 79 WNW 9 15 29.81 1009 10 16.0934 0 0
2:53 pm 14:53 Hazy 84 28.9 75 23.9 74 74 W 12 19 29.8 1009 4 6.43736 0 0
3:53 pm 15:53 Mostly Sunny 86 30 76 24.4 72 72 SW 8 13 29.78 1009 10 16.0934 0 0
4:53 pm 16:53 Partly Cloudy 84 28.9 72 22.2 67 67 W 9 15 29.78 1008 10 16.0934 0 0
5:53 pm 17:53 Mostly Cloudy 84 28.9 74 23.3 72 72 WSW 12 19 29.78 1009 10 16.0934 0 0
6:53 pm 18:53 Mostly Cloudy 82 27.8 74 23.3 77 77 WSW 8 13 29.77 1008 10 16.0934 0 0.0254
7:53 pm 19:53 Sunny with Light Rain 83 28.3 72 22.2 70 70 W 10 17 29.78 1008 10 16.0934 0 0.0254
8:53 pm 20:53 Sunny 79 26.1 70 21.1 74 74 WNW 8 13 29.79 1009 10 16.0934 0 0.0254
9:53 pm 21:53 Clear 76 24.4 71 21.7 85 85 W 5 7 29.83 1010 10 16.0934 0 0
10:53 pm 22:53 Clear 74 23.3 71 21.7 91 91 WSW 6 9 29.82 1010 10 16.0934 0 0
11:53 pm 23:53 Clear 70 21.1 69 20.6 97 97 NW 3 6 29.83 1010 10 16.0934 0 0

Powered by AerisWeather